^^
B2 Weather Station Historical Data
Daily Summary for October 21, 2018 Units:  English    Metric   Both
Daily Weekly Monthly Yearly Custom
  High: Low: Average:
Temperature: 51.7 °F 24.6 °F 39.2 °F
Dew Point: 29.6 °F 20.7 °F 25.5 °F
Humidity: 88% 37% 60%
Wind Speed: 15mph 0mph 5.6mph
Wind Gust: 8.7mph - -
Wind- - WSW
Pressure: 30.41 in 30.13 in -
Precipitation: 0 in    
Historical Graphs
 
 
Tabular Data for October 21, 2018
Time Temperature Dew Point Pressure Wind Wind Speed Wind Gust Humidity Rainfall Rate (Hourly) solar
00:04 31.7 °F 23 °F 30.35 in WNW 5.8 mph 2.8 mph 70% 0 in 0.00 W/m2
00:09 31.7 °F 22.7 °F 30.35 in NW 8 mph 4.3 mph 69% 0 in 0.00 W/m2
00:14 31.8 °F 22.4 °F 30.35 in WNW 6.9 mph 4.5 mph 68% 0 in 0.00 W/m2
00:19 31.9 °F 22.5 °F 30.35 in NW 5.8 mph 1.8 mph 68% 0 in 0.00 W/m2
00:24 31.8 °F 22.4 °F 30.35 in WNW 4.6 mph 2.9 mph 68% 0 in 0.00 W/m2
00:29 31.7 °F 22.3 °F 30.35 in NW 4.6 mph 1.6 mph 68% 0 in 0.00 W/m2
00:34 31.6 °F 22.2 °F 30.35 in NW 3.5 mph 1.9 mph 68% 0 in 0.00 W/m2
00:39 31.6 °F 22.2 °F 30.35 in WNW 4.6 mph 2.2 mph 68% 0 in 0.00 W/m2
00:44 31.4 °F 22.4 °F 30.35 in NW 3.5 mph 2.6 mph 69% 0 in 0.00 W/m2
00:49 31.2 °F 22.2 °F 30.35 in West 2.3 mph 2.8 mph 69% 0 in 0.00 W/m2
00:54 31 °F 22.4 °F 30.36 in West 4.6 mph 2.5 mph 70% 0 in 0.00 W/m2
00:59 30.9 °F 22.3 °F 30.36 in West 3.5 mph 1.8 mph 70% 0 in 0.00 W/m2
01:04 30.7 °F 22.4 °F 30.36 in WNW 5.8 mph 1.6 mph 71% 0 in 0.00 W/m2
01:09 30.7 °F 22.4 °F 30.36 in West 5 mph 2.5 mph 71% 0 in 0.00 W/m2
01:14 30.7 °F 22.4 °F 30.36 in NW 5.8 mph 4.7 mph 71% 0 in 0.00 W/m2
01:19 30.8 °F 22.5 °F 30.36 in WNW 4.6 mph 1.7 mph 71% 0 in 0.00 W/m2
01:24 30.7 °F 22.4 °F 30.36 in West 4 mph 3.4 mph 71% 0 in 0.00 W/m2
01:29 30.7 °F 22.4 °F 30.36 in WNW 5 mph 2.9 mph 71% 0 in 0.00 W/m2
01:34 30.5 °F 22.2 °F 30.36 in WNW 3 mph 1.9 mph 71% 0 in 0.00 W/m2
01:39 30.4 °F 22.1 °F 30.35 in NW 4.6 mph 1.6 mph 71% 0 in 0.00 W/m2
01:44 30.4 °F 22.1 °F 30.36 in WNW 3.5 mph 2.1 mph 71% 0 in 0.00 W/m2
01:49 30.2 °F 21.9 °F 30.36 in WNW 3.5 mph 2.1 mph 71% 0 in 0.00 W/m2
01:54 30.1 °F 22.2 °F 30.36 in West 5.8 mph 2.7 mph 72% 0 in 0.00 W/m2
01:59 30.1 °F 22.2 °F 30.36 in WNW 5.8 mph 3.2 mph 72% 0 in 0.00 W/m2
02:04 30 °F 22.1 °F 30.36 in WNW 6.9 mph 3.1 mph 72% 0 in 0.00 W/m2
02:09 30 °F 22.1 °F 30.36 in West 4.6 mph 2.8 mph 72% 0 in 0.00 W/m2
02:14 29.9 °F 22 °F 30.36 in West 4.6 mph 3.6 mph 72% 0 in 0.00 W/m2
02:19 29.9 °F 22 °F 30.37 in WNW 4.6 mph 3 mph 72% 0 in 0.00 W/m2
02:24 29.7 °F 22.1 °F 30.37 in NW 5.8 mph 2.4 mph 73% 0 in 0.00 W/m2
02:29 29.7 °F 22.1 °F 30.37 in West 3.5 mph 2.7 mph 73% 0 in 0.00 W/m2
02:34 29.6 °F 22 °F 30.37 in West 6 mph 3.7 mph 73% 0 in 0.00 W/m2
02:39 29.6 °F 22 °F 30.37 in WNW 3.5 mph 1.8 mph 73% 0 in 0.00 W/m2
02:44 29.5 °F 21.9 °F 30.37 in WNW 3.5 mph 2.7 mph 73% 0 in 0.00 W/m2
02:49 29.4 °F 21.8 °F 30.37 in WNW 3.5 mph 0.7 mph 73% 0 in 0.00 W/m2
02:54 29.4 °F 21.8 °F 30.38 in West 6 mph 3.9 mph 73% 0 in 0.00 W/m2
02:59 29.5 °F 21.9 °F 30.37 in WNW 5.8 mph 2.2 mph 73% 0 in 0.00 W/m2
03:04 29.5 °F 21.9 °F 30.38 in WNW 3.5 mph 1.7 mph 73% 0 in 0.00 W/m2
03:09 29.5 °F 21.9 °F 30.38 in WNW 5.8 mph 2.5 mph 73% 0 in 0.00 W/m2
03:14 29.6 °F 22 °F 30.37 in West 3.5 mph 1.3 mph 73% 0 in 0.00 W/m2
03:19 29.6 °F 22 °F 30.37 in WSW 4.6 mph 2.6 mph 73% 0 in 0.00 W/m2
03:24 29.6 °F 22 °F 30.38 in West 3.5 mph 0.7 mph 73% 0 in 0.00 W/m2
03:29 29.5 °F 21.9 °F 30.38 in West 3.5 mph 1.6 mph 73% 0 in 0.00 W/m2
03:34 29.4 °F 22.1 °F 30.38 in WNW 3 mph 0.9 mph 74% 0 in 0.00 W/m2
03:39 29.4 °F 22.1 °F 30.38 in WNW 2.3 mph 2.4 mph 74% 0 in 0.00 W/m2
03:44 29.4 °F 22.1 °F 30.38 in NW 5.8 mph 2.7 mph 74% 0 in 0.00 W/m2
03:49 29.7 °F 22.4 °F 30.38 in West 5 mph 5 mph 74% 0 in 0.00 W/m2
03:55 30 °F 22.4 °F 30.38 in NW 5.8 mph 4.3 mph 73% 0 in 0.00 W/m2
03:59 30.1 °F 22.5 °F 30.38 in West 8.1 mph 1.8 mph 73% 0 in 0.00 W/m2
04:04 29.9 °F 22.6 °F 30.38 in West 6.9 mph 3.8 mph 74% 0 in 0.00 W/m2
04:09 29.8 °F 22.5 °F 30.38 in WNW 6 mph 3.9 mph 74% 0 in 0.00 W/m2
04:14 29.7 °F 22.7 °F 30.38 in WSW 6.9 mph 3.9 mph 75% 0 in 0.00 W/m2
04:19 29.7 °F 22.4 °F 30.38 in WNW 6.9 mph 3.8 mph 74% 0 in 0.00 W/m2
04:24 29.7 °F 22.4 °F 30.38 in NW 6.9 mph 3.3 mph 74% 0 in 0.00 W/m2
04:29 29.7 °F 22.4 °F 30.38 in WNW 5.8 mph 3.6 mph 74% 0 in 0.00 W/m2
04:34 29.6 °F 22.3 °F 30.38 in WNW 6.9 mph 2.6 mph 74% 0 in 0.00 W/m2
04:39 29.7 °F 22.4 °F 30.38 in WNW 6.9 mph 4.1 mph 74% 0 in 0.00 W/m2
04:44 29.7 °F 22.4 °F 30.38 in NW 3.5 mph 3.1 mph 74% 0 in 0.00 W/m2
04:50 29.6 °F 22.3 °F 30.39 in WNW 4 mph 1.4 mph 74% 0 in 0.00 W/m2
04:54 29.6 °F 22.3 °F 30.39 in West 5.8 mph 1.9 mph 74% 0 in 0.00 W/m2
04:59 29.5 °F 22.2 °F 30.39 in NW 8 mph 2.9 mph 74% 0 in 0.00 W/m2
05:04 29.5 °F 22.2 °F 30.39 in WNW 4.6 mph 3.8 mph 74% 0 in 0.00 W/m2
05:09 29.5 °F 22.2 °F 30.39 in West 3.5 mph 2 mph 74% 0 in 0.00 W/m2
05:14 29.5 °F 22.2 °F 30.38 in NW 3.5 mph 0.6 mph 74% 0 in 0.00 W/m2
05:19 29.4 °F 22.1 °F 30.39 in West 3.5 mph 2.5 mph 74% 0 in 0.00 W/m2
05:24 29.3 °F 22.4 °F 30.39 in WSW 3.5 mph 1.7 mph 75% 0 in 0.00 W/m2
05:29 29.2 °F 22.3 °F 30.39 in WSW 3.5 mph 1.7 mph 75% 0 in 0.00 W/m2
05:34 29.1 °F 22.5 °F 30.39 in West 2 mph 1.9 mph 76% 0 in 0.00 W/m2
05:39 29 °F 22.4 °F 30.39 in West 2.3 mph 1.6 mph 76% 0 in 0.00 W/m2
05:44 28.8 °F 22.5 °F 30.39 in WNW 2.3 mph 1.5 mph 77% 0 in 0.00 W/m2
05:50 28.7 °F 22.4 °F 30.40 in WNW 3.5 mph 1.8 mph 77% 0 in 0.00 W/m2
05:54 28.8 °F 22.5 °F 30.40 in West 5.8 mph 1.3 mph 77% 0 in 0.00 W/m2
05:59 28.8 °F 22.5 °F 30.40 in West 3.5 mph 1.1 mph 77% 0 in 0.00 W/m2
06:04 28.8 °F 22.5 °F 30.40 in WNW 3.5 mph 0.6 mph 77% 0 in 0.00 W/m2
06:09 28.8 °F 22.5 °F 30.40 in WNW 3.5 mph 2.1 mph 77% 0 in 0.00 W/m2
06:14 28.8 °F 22.5 °F 30.40 in NW 3.5 mph 2.6 mph 77% 0 in 0.00 W/m2
06:19 28.8 °F 22.5 °F 30.40 in NW 3.5 mph 1 mph 77% 0 in 0.00 W/m2
06:24 28.7 °F 22.7 °F 30.39 in NW 3.5 mph 1.8 mph 78% 0 in 0.00 W/m2
06:29 28.6 °F 22.6 °F 30.39 in NW 2.3 mph 0.7 mph 78% 0 in 0.00 W/m2
06:34 28.3 °F 22.3 °F 30.39 in Calm     78% 0 in 0.00 W/m2
06:39 27.8 °F 21.8 °F 30.39 in NW 2.3 mph 1.1 mph 78% 0 in 0.00 W/m2
06:44 27.2 °F 21.5 °F 30.39 in NNW 1.2 mph 0.4 mph 79% 0 in 0.00 W/m2
06:49 26.6 °F 21.3 °F 30.39 in Calm   0.2 mph 80% 0 in 0.00 W/m2
06:54 26.1 °F 21.1 °F 30.39 in Calm     81% 0 in 0.00 W/m2
06:59 25.6 °F 20.9 °F 30.40 in Calm     82% 0 in 0.00 W/m2
07:04 25.4 °F 21 °F 30.40 in Calm     83% 0 in 0.00 W/m2
07:09 25.3 °F 20.9 °F 30.40 in Calm     83% 0 in 0.00 W/m2
07:14 25.1 °F 20.9 °F 30.40 in Calm     84% 0 in 5.00 W/m2
07:19 24.9 °F 20.8 °F 30.40 in Calm     84% 0 in 7.00 W/m2
07:24 24.7 °F 20.8 °F 30.41 in Calm     85% 0 in 9.00 W/m2
07:29 24.6 °F 20.7 °F 30.40 in Calm     85% 0 in 11.00 W/m2
07:34 24.8 °F 21.2 °F 30.40 in Calm     86% 0 in 16.00 W/m2
07:40 25.2 °F 21.9 °F 30.40 in Calm     87% 0 in 30.00 W/m2
07:44 25.7 °F 22.6 °F 30.40 in Calm     88% 0 in 46.00 W/m2
07:49 26.1 °F 22.8 °F 30.41 in Calm     87% 0 in 60.00 W/m2
07:54 26.8 °F 23.7 °F 30.41 in NNW 1.2 mph 0.4 mph 88% 0 in 76.00 W/m2
07:59 27.9 °F 24.8 °F 30.40 in Calm     88% 0 in 88.00 W/m2
08:05 28.9 °F 25.8 °F 30.40 in Calm     88% 0 in 98.00 W/m2
08:09 29.8 °F 26.4 °F 30.40 in Calm     87% 0 in 111.00 W/m2
08:14 30.6 °F 26.6 °F 30.40 in Calm     85% 0 in 125.00 W/m2
08:19 31 °F 26.4 °F 30.41 in Calm     83% 0 in 125.00 W/m2
08:24 31.6 °F 26.7 °F 30.40 in Calm     82% 0 in 127.00 W/m2
08:29 32.3 °F 26.8 °F 30.41 in Calm     80% 0 in 148.00 W/m2
08:34 32.7 °F 26.6 °F 30.41 in Calm     78% 0 in 174.00 W/m2
08:39 33.2 °F 26.8 °F 30.41 in Calm     77% 0 in 199.00 W/m2
08:44 34 °F 27.5 °F 30.41 in Calm     77% 0 in 211.00 W/m2
08:49 34.5 °F 27.1 °F 30.41 in Calm     74% 0 in 221.00 W/m2
08:54 34.7 °F 26.6 °F 30.40 in Calm     72% 0 in 230.00 W/m2
08:59 35 °F 26.5 °F 30.41 in Calm     71% 0 in 237.00 W/m2
09:04 35.1 °F 25.9 °F 30.40 in Calm     69% 0 in 248.00 W/m2
09:09 35.5 °F 26.3 °F 30.40 in Calm     69% 0 in 255.00 W/m2
09:14 36 °F 27.2 °F 30.40 in Calm     70% 0 in 265.00 W/m2
09:19 36.4 °F 26.1 °F 30.40 in Calm     66% 0 in 278.00 W/m2
09:24 36.8 °F 26.5 °F 30.40 in Calm     66% 0 in 292.00 W/m2
09:30 37.5 °F 26.8 °F 30.40 in Calm     65% 0 in 306.00 W/m2
09:34 38.4 °F 28 °F 30.40 in Calm     66% 0 in 323.00 W/m2
09:39 38.4 °F 25.7 °F 30.40 in Calm     60% 0 in 341.00 W/m2
09:44 38.2 °F 25.5 °F 30.40 in Calm     60% 0 in 359.00 W/m2
09:49 38.4 °F 26.5 °F 30.40 in Calm     62% 0 in 380.00 W/m2
09:54 38.5 °F 26.2 °F 30.41 in Calm     61% 0 in 397.00 W/m2
09:59 38.8 °F 26.9 °F 30.40 in SW 8.1 mph 3.6 mph 62% 0 in 422.00 W/m2
10:04 39.1 °F 26.4 °F 30.40 in West 3.5 mph 1.5 mph 60% 0 in 443.00 W/m2
10:10 39.4 °F 26.7 °F 30.40 in WSW 5 mph 2.7 mph 60% 0 in 462.00 W/m2
10:14 39.5 °F 26.8 °F 30.40 in WSW 3.5 mph 2 mph 60% 0 in 478.00 W/m2
10:19 39.9 °F 27.9 °F 30.40 in WSW 6 mph 1.7 mph 62% 0 in 489.00 W/m2
10:24 40 °F 28 °F 30.40 in WSW 3.5 mph 1 mph 62% 0 in 499.00 W/m2
10:30 40.1 °F 28.9 °F 30.40 in SW 2.3 mph 0.4 mph 64% 0 in 508.00 W/m2
10:34 40.8 °F 29.6 °F 30.39 in Calm     64% 0 in 520.00 W/m2
10:39 41.2 °F 28.8 °F 30.39 in SSW 1.2 mph 0.7 mph 61% 0 in 531.00 W/m2
10:44 41.4 °F 28.1 °F 30.39 in SSW 2.3 mph 0.6 mph 59% 0 in 540.00 W/m2
10:49 41.5 °F 27 °F 30.39 in West 6.9 mph 2.5 mph 56% 0 in 545.00 W/m2
10:54 41.5 °F 26.1 °F 30.39 in WSW 4.6 mph 4.6 mph 54% 0 in 555.00 W/m2
10:59 41.6 °F 26.6 °F 30.39 in SW 5.8 mph 0.8 mph 55% 0 in 563.00 W/m2
11:04 41.7 °F 25.8 °F 30.39 in SSW 4.6 mph 1.4 mph 53% 0 in 571.00 W/m2
11:09 42.2 °F 25.8 °F 30.39 in WSW 4 mph 4.4 mph 52% 0 in 578.00 W/m2
11:15 42.3 °F 25.9 °F 30.39 in WSW 8.1 mph 6.1 mph 52% 0 in 585.00 W/m2
11:19 42.2 °F 26.3 °F 30.39 in NW 4.6 mph 0.9 mph 53% 0 in 592.00 W/m2
11:24 42.5 °F 26.1 °F 30.39 in SSW 8.1 mph 2.7 mph 52% 0 in 598.00 W/m2
11:29 42.7 °F 25.8 °F 30.39 in WSW 9.2 mph 6.3 mph 51% 0 in 603.00 W/m2
11:35 43.1 °F 27.1 °F 30.39 in WSW 4 mph 1.4 mph 53% 0 in 608.00 W/m2
11:39 43.4 °F 26.9 °F 30.38 in SW 11 mph 6.2 mph 52% 0 in 615.00 W/m2
11:44 43.3 °F 25.9 °F 30.38 in WSW 9.2 mph 3.2 mph 50% 0 in 619.00 W/m2
11:49 43.6 °F 26.2 °F 30.38 in SW 8 mph 3.1 mph 50% 0 in 622.00 W/m2
11:54 44 °F 26 °F 30.38 in SSW 6.9 mph 2.1 mph 49% 0 in 628.00 W/m2
11:59 44.2 °F 26.2 °F 30.37 in SSW 8.1 mph 3.2 mph 49% 0 in 629.00 W/m2
12:05 44.5 °F 26.5 °F 30.37 in SW 5.8 mph 3.4 mph 49% 0 in 633.00 W/m2
12:09 44.7 °F 26.2 °F 30.36 in WSW 5.8 mph 6 mph 48% 0 in 635.00 W/m2
12:14 44.4 °F 27.4 °F 30.36 in WSW 5 mph 2.2 mph 51% 0 in 636.00 W/m2
12:19 44.6 °F 26.1 °F 30.36 in WSW 8.1 mph 3 mph 48% 0 in 621.00 W/m2
12:24 44.6 °F 26.6 °F 30.35 in West 6 mph 5.2 mph 49% 0 in 582.00 W/m2
12:29 44.8 °F 26.3 °F 30.35 in WSW 8.1 mph 4.1 mph 48% 0 in 545.00 W/m2
12:35 45 °F 26.5 °F 30.35 in West 10.4 mph 6.6 mph 48% 0 in 519.00 W/m2
12:39 45.1 °F 26.1 °F 30.35 in SW 6.9 mph 4 mph 47% 0 in 503.00 W/m2
12:44 45.6 °F 28 °F 30.35 in SSW 8.1 mph 5.2 mph 50% 0 in 512.00 W/m2
12:49 45.9 °F 26.3 °F 30.34 in SW 15 mph 7.7 mph 46% 0 in 543.00 W/m2
12:54 45.9 °F 26.8 °F 30.34 in South 9.2 mph 5 mph 47% 0 in 580.00 W/m2
12:59 46.2 °F 27.6 °F 30.34 in North 3.5 mph 2.1 mph 48% 0 in 615.00 W/m2
13:05 46.5 °F 26.3 °F 30.33 in North 5.8 mph 3.9 mph 45% 0 in 636.00 W/m2
13:09 46.7 °F 25.9 °F 30.32 in WSW 10.4 mph 7.6 mph 44% 0 in 633.00 W/m2
13:14 46.8 °F 26.6 °F 30.32 in SSW 4.6 mph 3.9 mph 45% 0 in 629.00 W/m2
13:19 47.2 °F 26.9 °F 30.32 in WSW 8.1 mph 6.3 mph 45% 0 in 626.00 W/m2
13:24 47.2 °F 26.4 °F 30.31 in WSW 9.2 mph 6.5 mph 44% 0 in 624.00 W/m2
13:29 47.5 °F 27.2 °F 30.30 in SSW 12.7 mph 5.7 mph 45% 0 in 621.00 W/m2
13:34 47.4 °F 27.1 °F 30.30 in SSW 4.6 mph 4.3 mph 45% 0 in 615.00 W/m2
13:40 47.8 °F 27.5 °F 30.29 in SSW 11.5 mph 5.7 mph 45% 0 in 610.00 W/m2
13:44 48.1 °F 26.6 °F 30.29 in WSW 6.9 mph 5.9 mph 43% 0 in 605.00 W/m2
13:49 48.3 °F 26.8 °F 30.29 in SW 10 mph 5.8 mph 43% 0 in 599.00 W/m2
13:54 48.4 °F 26.3 °F 30.29 in SW 6.9 mph 3.9 mph 42% 0 in 594.00 W/m2
13:59 48.8 °F 27.3 °F 30.28 in SW 9.2 mph 6.8 mph 43% 0 in 585.00 W/m2
14:04 49.1 °F 27.5 °F 30.28 in SSE 4.6 mph 5.1 mph 43% 0 in 577.00 W/m2
14:09 49.4 °F 27.2 °F 30.28 in SSE 6.9 mph 5.7 mph 42% 0 in 573.00 W/m2
14:14 49.5 °F 26.1 °F 30.27 in WSW 8.1 mph 6.2 mph 40% 0 in 566.00 W/m2
14:19 49.4 °F 26.7 °F 30.27 in SSW 9.2 mph 4.8 mph 41% 0 in 557.00 W/m2
14:24 49.5 °F 27.3 °F 30.27 in West 10 mph 6.8 mph 42% 0 in 548.00 W/m2
14:29 49.6 °F 26.2 °F 30.26 in South 9.2 mph 5.2 mph 40% 0 in 540.00 W/m2
14:34 49.7 °F 26.3 °F 30.26 in WSW 13.8 mph 7.1 mph 40% 0 in 527.00 W/m2
14:39 49.8 °F 25.8 °F 30.26 in WNW 13.8 mph 6.4 mph 39% 0 in 522.00 W/m2
14:44 50 °F 26.6 °F 30.26 in WSW 11.5 mph 5.3 mph 40% 0 in 513.00 W/m2
14:49 50.1 °F 26.1 °F 30.25 in SW 12 mph 6.6 mph 39% 0 in 503.00 W/m2
14:55 50.3 °F 26.3 °F 30.25 in WSW 6.9 mph 4.3 mph 39% 0 in 494.00 W/m2
14:59 50.6 °F 26.5 °F 30.25 in WSW 11.5 mph 8.7 mph 39% 0 in 482.00 W/m2
15:04 50.5 °F 27 °F 30.25 in SW 11.5 mph 7.8 mph 40% 0 in 473.00 W/m2
15:09 50.6 °F 26.5 °F 30.25 in SW 10.4 mph 7.2 mph 39% 0 in 461.00 W/m2
15:14 50.8 °F 27.3 °F 30.25 in South 10.4 mph 2.3 mph 40% 0 in 448.00 W/m2
15:19 51.2 °F 26.4 °F 30.24 in North 12.7 mph 6.1 mph 38% 0 in 438.00 W/m2
15:24 51.3 °F 27.8 °F 30.24 in SW 9 mph 6.1 mph 40% 0 in 425.00 W/m2
15:29 51.4 °F 26.6 °F 30.24 in South 11.5 mph 6.9 mph 38% 0 in 413.00 W/m2
15:35 51.2 °F 26.4 °F 30.23 in WSW 12.7 mph 8.2 mph 38% 0 in 401.00 W/m2
15:39 51 °F 26.9 °F 30.23 in SSW 13.8 mph 4.7 mph 39% 0 in 388.00 W/m2
15:44 51.4 °F 27.2 °F 30.23 in SW 6.9 mph 3.2 mph 39% 0 in 374.00 W/m2
15:49 51.5 °F 27.3 °F 30.23 in SW 8.1 mph 4.5 mph 39% 0 in 362.00 W/m2
15:54 51.7 °F 26.2 °F 30.22 in West 11.5 mph 7.1 mph 37% 0 in 348.00 W/m2
15:59 51.6 °F 27.4 °F 30.22 in SSW 5.8 mph 4.8 mph 39% 0 in 336.00 W/m2
16:04 51.6 °F 27.4 °F 30.22 in WSW 11.5 mph 7 mph 39% 0 in 322.00 W/m2
16:09 51.5 °F 26.7 °F 30.21 in West 12.7 mph 6.2 mph 38% 0 in 308.00 W/m2
16:14 51.4 °F 26.6 °F 30.21 in South 10.4 mph 4.3 mph 38% 0 in 292.00 W/m2
16:19 51.5 °F 27.3 °F 30.21 in South 12.7 mph 6.7 mph 39% 0 in 276.00 W/m2
16:24 51.3 °F 27.2 °F 30.20 in South 12.7 mph 5.2 mph 39% 0 in 260.00 W/m2
16:29 51.4 °F 27.2 °F 30.20 in SSW 8.1 mph 1.1 mph 39% 0 in 244.00 W/m2
16:34 51.5 °F 26.7 °F 30.20 in SSW 2 mph 2 mph 38% 0 in 244.00 W/m2
16:39 51.4 °F 26.6 °F 30.19 in SSW 11.5 mph 4.6 mph 38% 0 in 204.00 W/m2
16:44 51.2 °F 26.4 °F 30.19 in SSW 12.7 mph 6.8 mph 38% 0 in 183.00 W/m2
16:49 50.9 °F 27.4 °F 30.19 in South 6.9 mph 4.2 mph 40% 0 in 162.00 W/m2
16:54 50.7 °F 26.6 °F 30.18 in South 12.7 mph 6.9 mph 39% 0 in 142.00 W/m2
16:59 50.7 °F 26.6 °F 30.18 in South 11.5 mph 7.3 mph 39% 0 in 125.00 W/m2
17:04 50.7 °F 26.6 °F 30.18 in SSW 8.1 mph 4.9 mph 39% 0 in 105.00 W/m2
17:09 50.5 °F 25.8 °F 30.18 in SW 13.8 mph 6.8 mph 38% 0 in 91.00 W/m2
17:14 50.5 °F 27 °F 30.18 in SSW 6.9 mph 4.3 mph 40% 0 in 76.00 W/m2
17:19 50.3 °F 26.3 °F 30.18 in SSW 11.5 mph 5.8 mph 39% 0 in 60.00 W/m2
17:24 50.2 °F 26.8 °F 30.18 in SSW 10.4 mph 3.1 mph 40% 0 in 47.00 W/m2
17:29 49.8 °F 26.4 °F 30.18 in SSW 9.2 mph 3.1 mph 40% 0 in 18.00 W/m2
17:34 49.4 °F 26.7 °F 30.18 in SSW 8.1 mph 4.6 mph 41% 0 in 16.00 W/m2
17:39 49.1 °F 26.4 °F 30.18 in South 9.2 mph 5.2 mph 41% 0 in 14.00 W/m2
17:44 48.8 °F 26.7 °F 30.17 in South 8.1 mph 4.4 mph 42% 0 in 12.00 W/m2
17:49 48.5 °F 27 °F 30.17 in SW 8.1 mph 3.1 mph 43% 0 in 9.00 W/m2
17:54 48.2 °F 26.7 °F 30.17 in SSW 6.9 mph 3.8 mph 43% 0 in 7.00 W/m2
17:59 47.8 °F 26.9 °F 30.17 in South 8.1 mph 2.7 mph 44% 0 in 5.00 W/m2
18:04 47.5 °F 26.6 °F 30.17 in SW 8.1 mph 5 mph 44% 0 in 0.00 W/m2
18:09 47.4 °F 27.1 °F 30.17 in South 5.8 mph 3.4 mph 45% 0 in 0.00 W/m2
18:14 47.2 °F 26.9 °F 30.17 in South 6.9 mph 4 mph 45% 0 in 0.00 W/m2
18:19 47 °F 26.7 °F 30.17 in SW 10.4 mph 3.9 mph 45% 0 in 0.00 W/m2
18:24 46.8 °F 27.1 °F 30.17 in SSW 4.6 mph 4 mph 46% 0 in 0.00 W/m2
18:29 46.6 °F 26.9 °F 30.17 in South 7 mph 2.3 mph 46% 0 in 0.00 W/m2
18:34 46.5 °F 26.8 °F 30.17 in SSW 6.9 mph 3 mph 46% 0 in 0.00 W/m2
18:39 46.3 °F 27.2 °F 30.17 in South 8.1 mph 2.8 mph 47% 0 in 0.00 W/m2
18:44 46.1 °F 27.5 °F 30.17 in SSW 5.8 mph 3.1 mph 48% 0 in 0.00 W/m2
18:49 46 °F 27.4 °F 30.17 in SSW 8.1 mph 2.9 mph 48% 0 in 0.00 W/m2
18:54 45.8 °F 27.2 °F 30.17 in South 5 mph 1.2 mph 48% 0 in 0.00 W/m2
18:59 45.7 °F 27.6 °F 30.17 in SW 5.8 mph 2.7 mph 49% 0 in 0.00 W/m2
19:04 45.5 °F 27.4 °F 30.18 in SSW 6.9 mph 3.4 mph 49% 0 in 0.00 W/m2
19:09 45.5 °F 27.4 °F 30.17 in SSW 6.9 mph 4.1 mph 49% 0 in 0.00 W/m2
19:14 45.4 °F 27.3 °F 30.17 in South 4.6 mph 2.6 mph 49% 0 in 0.00 W/m2
19:19 45.4 °F 27.8 °F 30.17 in SSW 5.8 mph 4.1 mph 50% 0 in 0.00 W/m2
19:24 45.3 °F 27.2 °F 30.17 in SSW 8.1 mph 4.9 mph 49% 0 in 0.00 W/m2
19:29 45.2 °F 27.6 °F 30.17 in SSW 3.5 mph 2.9 mph 50% 0 in 0.00 W/m2
19:34 44.9 °F 27.4 °F 30.16 in SSW 3.5 mph 2.9 mph 50% 0 in 0.00 W/m2
19:39 44.7 °F 27.7 °F 30.16 in SSW 3.5 mph 2 mph 51% 0 in 0.00 W/m2
19:44 44.6 °F 27.6 °F 30.16 in South 6.9 mph 2.2 mph 51% 0 in 0.00 W/m2
19:49 44.4 °F 27.4 °F 30.16 in SSW 5.8 mph 3.2 mph 51% 0 in 0.00 W/m2
19:54 44.4 °F 27.4 °F 30.15 in SSW 9.2 mph 4.2 mph 51% 0 in 0.00 W/m2
19:59 44.3 °F 27.8 °F 30.15 in South 4.6 mph 2.3 mph 52% 0 in 0.00 W/m2
20:04 44.2 °F 27.2 °F 30.15 in South 5.8 mph 2.9 mph 51% 0 in 0.00 W/m2
20:09 44.1 °F 27.6 °F 30.15 in South 3.5 mph 2.7 mph 52% 0 in 0.00 W/m2
20:14 43.8 °F 27.3 °F 30.15 in WSW 4.6 mph 1.4 mph 52% 0 in 0.00 W/m2
20:19 43.6 °F 27.6 °F 30.15 in South 5.8 mph 3 mph 53% 0 in 0.00 W/m2
20:24 43.5 °F 27.9 °F 30.15 in SSW 6 mph 2.6 mph 54% 0 in 0.00 W/m2
20:29 43.4 °F 27.8 °F 30.14 in South 5 mph 3.2 mph 54% 0 in 0.00 W/m2
20:34 43.2 °F 28.1 °F 30.14 in SSE 8.1 mph 2.7 mph 55% 0 in 0.00 W/m2
20:39 43.1 °F 28 °F 30.14 in SW 5.8 mph 3.6 mph 55% 0 in 0.00 W/m2
20:44 43 °F 27.9 °F 30.14 in SSW 5.8 mph 3.8 mph 55% 0 in 0.00 W/m2
20:49 42.9 °F 27.8 °F 30.14 in SSE 6.9 mph 3.5 mph 55% 0 in 0.00 W/m2
20:54 42.9 °F 27.8 °F 30.14 in SSW 8.1 mph 4.9 mph 55% 0 in 0.00 W/m2
20:59 43 °F 27.9 °F 30.14 in SSW 6.9 mph 4.5 mph 55% 0 in 0.00 W/m2
21:04 43.1 °F 28 °F 30.13 in South 10.4 mph 4.3 mph 55% 0 in 0.00 W/m2
21:09 43.1 °F 28 °F 30.14 in South 9.2 mph 4.5 mph 55% 0 in 0.00 W/m2
21:14 43.1 °F 28 °F 30.13 in SSW 8.1 mph 4.4 mph 55% 0 in 0.00 W/m2
21:19 43.1 °F 28 °F 30.14 in South 8.1 mph 3.7 mph 55% 0 in 0.00 W/m2
21:24 43 °F 27.9 °F 30.14 in South 8.1 mph 2.8 mph 55% 0 in 0.00 W/m2
21:29 42.9 °F 27.8 °F 30.14 in SW 9.2 mph 6.2 mph 55% 0 in 0.00 W/m2
21:34 43 °F 27.9 °F 30.15 in SW 10.4 mph 7.3 mph 55% 0 in 0.00 W/m2
21:39 43.1 °F 28 °F 30.14 in SSW 7 mph 3.7 mph 55% 0 in 0.00 W/m2
21:44 43.2 °F 28.1 °F 30.15 in South 13.8 mph 6.1 mph 55% 0 in 0.00 W/m2
21:49 43.3 °F 28.2 °F 30.15 in SW 11.5 mph 5.3 mph 55% 0 in 0.00 W/m2
21:54 43.3 °F 28.2 °F 30.15 in SSW 8 mph 4.5 mph 55% 0 in 0.00 W/m2
21:59 43.3 °F 28.2 °F 30.15 in WSW 10.4 mph 4.8 mph 55% 0 in 0.00 W/m2
22:04 43.1 °F 28.5 °F 30.16 in SSW 9.2 mph 6.5 mph 56% 0 in 0.00 W/m2
22:09 43 °F 28.8 °F 30.16 in SSW 8.1 mph 3.9 mph 57% 0 in 0.00 W/m2
22:14 42.8 °F 28.6 °F 30.16 in South 9.2 mph 3.6 mph 57% 0 in 0.00 W/m2
22:19 42.5 °F 28.8 °F 30.15 in West 6.9 mph 5 mph 58% 0 in 0.00 W/m2
22:24 42.3 °F 28.6 °F 30.15 in SSW 9.2 mph 2.9 mph 58% 0 in 0.00 W/m2
22:29 42.1 °F 28.8 °F 30.15 in SSW 7 mph 3.5 mph 59% 0 in 0.00 W/m2
22:34 41.9 °F 28.6 °F 30.15 in SSW 4.6 mph 2.7 mph 59% 0 in 0.00 W/m2
22:39 41.5 °F 28.6 °F 30.15 in WSW 6.9 mph 2.9 mph 60% 0 in 0.00 W/m2
22:44 41.3 °F 28.9 °F 30.16 in SSW 3.5 mph 4.2 mph 61% 0 in 0.00 W/m2
22:49 41.2 °F 28.8 °F 30.16 in SW 7 mph 3 mph 61% 0 in 0.00 W/m2
22:54 41.1 °F 28.7 °F 30.16 in SSW 3.5 mph 1.3 mph 61% 0 in 0.00 W/m2
22:59 40.9 °F 28.9 °F 30.16 in SSW 3.5 mph 1.4 mph 62% 0 in 0.00 W/m2
23:04 40.8 °F 28.8 °F 30.16 in SSW 4.6 mph 3.7 mph 62% 0 in 0.00 W/m2
23:09 40.6 °F 28.6 °F 30.16 in SW 4.6 mph 1.9 mph 62% 0 in 0.00 W/m2
23:14 40.4 °F 28.8 °F 30.15 in SSW 3.5 mph 0.7 mph 63% 0 in 0.00 W/m2
23:19 40.2 °F 28.6 °F 30.15 in SSW 3.5 mph 0.8 mph 63% 0 in 0.00 W/m2
23:24 40 °F 28.8 °F 30.15 in SSW 3.5 mph 0.7 mph 64% 0 in 0.00 W/m2
23:29 39.7 °F 28.5 °F 30.15 in SSW 1.2 mph   64% 0 in 0.00 W/m2
23:34 39.3 °F 28.5 °F 30.15 in Calm     65% 0 in 0.00 W/m2
23:39 38.9 °F 28.1 °F 30.15 in Calm     65% 0 in 0.00 W/m2
23:44 38.6 °F 28.2 °F 30.15 in Calm   0.3 mph 66% 0 in 0.00 W/m2
23:49 38.3 °F 28.3 °F 30.14 in SSW 1.2 mph   67% 0 in 0.00 W/m2
23:54 38 °F 28.4 °F 30.14 in SSW 1.2 mph 0.1 mph 68% 0 in 0.00 W/m2
23:59 37.7 °F 28.4 °F 30.14 in Calm     69% 0 in 0.00 W/m2
Bourbonnais, Illinois, USA
Compliments of Weather Underground - 4 mb